Monroe, WI

5:28 AM CST on December 08, 2019 (GMT -0600)
Monroe Municipal

Weather History for KEFT - August, 2019

Change the Weather History Date:

Tuesday, August 27, 2019

  Actual Average Record
Temperature  
Mean Temperature 67 °F -  
Max Temperature 76 °F 86 °F 93 °F (2013)
Min Temperature 58 °F 54 °F 53 °F (2008)
Cooling Degree Days 2    
Growing Degree Days 17 (Base 50)    
Moisture  
Dew Point 56 °F    
Average Humidity 71    
Maximum Humidity 97    
Minimum Humidity 43    
Precipitation  
Precipitation 0.00 in - - ()
Sea Level Pressure  
Sea Level Pressure 29.82 in    
Wind  
Wind Speed 12 mph (WSW)    
Max Wind Speed 24 mph    
Max Gust Speed 33 mph    
Visibility 10 miles    
Events      
Averages and records for this station are not official NWS values.
T = Trace of Precipitation, MM = Missing Value Source: NWS Daily Summary

Daily Weather History Graph

Daily Weather History Graph

Search for Another Location

Airport or City:

Astronomy

Aug. 27, 2019 Rise Set
Actual Time 6:17 AM CDT 7:41 PM CDT
Civil Twilight 5:48 AM CDT 8:10 PM CDT
Nautical Twilight 5:12 AM CDT 8:45 PM CDT
Astronomical Twilight 4:35 AM CDT 9:23 PM CDT
Moon 2:37 AM CDT (8/27) 6:06 PM CDT (8/27)
Length of Visible Light 14h 22m
Length of Day
13h 23m
Waning Crescent, 11% of the Moon is Illuminated
Aug 27
Waning Crescent
Aug 30
New
Sep 5
First Quarter
Sep 13
Full
Sep 21
Last Quarter

Hourly Weather History & Observations

Time (CDT) Temp. Dew Point Humidity Pressure Visibility Wind Dir Wind Speed Gust Speed Precip Events Conditions
12:15 AM 66.0 °F 64.8 °F 96% 29.73 in 10.0 mi West 15.0 mph - N/A   Overcast
12:35 AM 65.5 °F 63.9 °F 94% 29.74 in 10.0 mi West 13.8 mph - N/A   Mostly Cloudy
12:55 AM 64.8 °F 63.1 °F 94% 29.74 in 10.0 mi West 12.7 mph - N/A   Mostly Cloudy
1:15 AM 63.7 °F 61.9 °F 94% 29.75 in 10.0 mi West 12.7 mph - N/A   Scattered Clouds
1:35 AM 62.6 °F 61.2 °F 95% 29.75 in 10.0 mi West 11.5 mph - N/A   Clear
1:55 AM 62.1 °F 60.6 °F 95% 29.75 in 10.0 mi West 10.4 mph 16.1 mph N/A   Clear
2:15 AM 61.5 °F 60.1 °F 95% 29.76 in 10.0 mi West 11.5 mph - N/A   Clear
2:35 AM 61.0 °F 59.5 °F 95% 29.76 in 10.0 mi West 10.4 mph - N/A   Clear
2:55 AM 60.8 °F 59.4 °F 95% 29.76 in 10.0 mi West 8.1 mph - N/A   Clear
3:15 AM 60.1 °F 59.0 °F 96% 29.77 in 10.0 mi West 9.2 mph - N/A   Clear
3:35 AM 59.5 °F 58.5 °F 96% 29.77 in 10.0 mi West 9.2 mph - N/A   Clear
3:55 AM 59.2 °F 58.3 °F 97% 29.77 in 10.0 mi WSW 6.9 mph - N/A   Clear
4:15 AM 58.8 °F 57.9 °F 97% 29.77 in 10.0 mi SW 6.9 mph - N/A   Clear
4:35 AM 59.0 °F 57.9 °F 96% 29.78 in 10.0 mi SW 8.1 mph - N/A   Clear
4:55 AM 59.0 °F 58.1 °F 97% 29.78 in 10.0 mi SW 9.2 mph - N/A   Clear
5:15 AM 59.0 °F 58.1 °F 97% 29.78 in 10.0 mi SW 10.4 mph - N/A   Clear
5:35 AM 59.0 °F 58.1 °F 97% 29.78 in 10.0 mi SW 9.2 mph - N/A   Clear
5:55 AM 59.0 °F 58.1 °F 97% 29.78 in 10.0 mi WSW 10.4 mph - N/A   Clear
6:15 AM 59.5 °F 58.5 °F 96% 29.78 in 10.0 mi WSW 11.5 mph - N/A   Clear
6:35 AM 59.9 °F 58.8 °F 96% 29.79 in 10.0 mi WSW 11.5 mph - N/A   Clear
6:55 AM 60.1 °F 59.0 °F 96% 29.80 in 10.0 mi WSW 11.5 mph - N/A   Clear
7:15 AM 60.4 °F 59.4 °F 96% 29.80 in 10.0 mi WSW 11.5 mph - N/A   Clear
7:35 AM 60.8 °F 59.9 °F 97% 29.81 in 10.0 mi WSW 10.4 mph - N/A   Mostly Cloudy
7:55 AM 61.0 °F 60.1 °F 97% 29.81 in 1.0 mi WSW 10.4 mph - N/A   Overcast
8:15 AM 61.9 °F 60.8 °F 96% 29.82 in 10.0 mi WSW 9.2 mph - N/A   Overcast
8:35 AM 63.1 °F 61.2 °F 93% 29.82 in 10.0 mi West 11.5 mph - N/A   Mostly Cloudy
8:55 AM 63.7 °F 61.0 °F 91% 29.82 in 10.0 mi WSW 10.4 mph - N/A   Mostly Cloudy
9:15 AM 65.5 °F 60.8 °F 85% 29.83 in 10.0 mi West 9.2 mph - N/A   Scattered Clouds
9:35 AM 67.1 °F 60.4 °F 79% 29.83 in 10.0 mi West 10.4 mph - N/A   Clear
9:55 AM 68.4 °F 60.4 °F 76% 29.83 in 10.0 mi West 13.8 mph - N/A   Clear
10:15 AM 69.6 °F 60.3 °F 72% 29.83 in 10.0 mi WSW 9.2 mph - N/A   Clear
10:35 AM 70.3 °F 58.1 °F 65% 29.84 in 10.0 mi West 11.5 mph - N/A   Clear
10:55 AM 71.1 °F 57.9 °F 63% 29.84 in 10.0 mi West 12.7 mph - N/A   Clear
11:15 AM 72.1 °F 57.7 °F 60% 29.84 in 10.0 mi West 8.1 mph - N/A   Clear
11:35 AM 72.7 °F 56.8 °F 57% 29.84 in 10.0 mi West 11.5 mph - N/A   Clear
11:55 AM 73.4 °F 56.5 °F 55% 29.83 in 10.0 mi West 11.5 mph 20.7 mph N/A   Scattered Clouds
12:15 PM 74.3 °F 55.9 °F 53% 29.83 in 10.0 mi West 16.1 mph 19.6 mph N/A   Clear
12:35 PM 74.7 °F 56.7 °F 53% 29.83 in 10.0 mi WSW 16.1 mph - N/A   Clear
12:55 PM 74.7 °F 55.0 °F 50% 29.83 in 10.0 mi West 12.7 mph - N/A   Clear
1:15 PM 75.4 °F 56.3 °F 51% 29.82 in 10.0 mi WSW 17.3 mph 23.0 mph N/A   Scattered Clouds
1:35 PM 75.6 °F 55.0 °F 49% 29.82 in 10.0 mi West 12.7 mph 25.3 mph N/A   Scattered Clouds
1:55 PM 75.9 °F 54.3 °F 47% 29.83 in 10.0 mi West 19.6 mph 31.1 mph N/A   Mostly Cloudy
2:15 PM 75.9 °F 55.0 °F 48% 29.83 in 10.0 mi West 16.1 mph 29.9 mph N/A   Scattered Clouds
2:35 PM 75.9 °F 55.6 °F 49% 29.83 in 10.0 mi West 16.1 mph 27.6 mph N/A   Clear
2:55 PM 75.2 °F 54.3 °F 48% 29.83 in 10.0 mi West 20.7 mph 33.4 mph N/A   Clear
3:15 PM 76.1 °F 53.8 °F 46% 29.83 in 10.0 mi West 19.6 mph 28.8 mph N/A   Scattered Clouds
3:35 PM 75.7 °F 52.2 °F 44% 29.83 in 10.0 mi West 21.9 mph 33.4 mph N/A   Scattered Clouds
3:55 PM 75.0 °F 51.8 °F 44% 29.83 in 10.0 mi West 24.2 mph 31.1 mph N/A   Clear
4:35 PM 74.5 °F 52.0 °F 45% 29.82 in 10.0 mi West 16.1 mph 28.8 mph N/A   Clear
4:55 PM 74.7 °F 51.4 °F 44% 29.83 in 10.0 mi West 17.3 mph 26.5 mph N/A   Clear
5:15 PM 74.1 °F 51.6 °F 45% 29.83 in 10.0 mi West 16.1 mph 21.9 mph N/A   Clear
5:35 PM 73.8 °F 50.0 °F 43% 29.83 in 10.0 mi West 18.4 mph 24.2 mph N/A   Clear
5:55 PM 73.2 °F 50.5 °F 45% 29.84 in 10.0 mi West 17.3 mph - N/A   Clear
6:15 PM 72.7 °F 51.4 °F 47% 29.84 in 10.0 mi West 13.8 mph - N/A   Clear
6:35 PM 72.1 °F 51.4 °F 48% 29.85 in 10.0 mi West 12.7 mph - N/A   Clear
6:55 PM 70.9 °F 50.7 °F 49% 29.85 in 10.0 mi West 13.8 mph 18.4 mph N/A   Clear
7:35 PM 69.1 °F 50.0 °F 51% 29.86 in 10.0 mi WSW 13.8 mph - N/A   Clear
7:55 PM 68.4 °F 48.4 °F 49% 29.86 in 10.0 mi West 15.0 mph 21.9 mph N/A   Clear
8:15 PM 67.1 °F 48.2 °F 51% 29.87 in 10.0 mi West 16.1 mph - N/A   Clear
8:35 PM 66.4 °F 48.2 °F 52% 29.88 in 10.0 mi WSW 11.5 mph - N/A   Clear
8:55 PM 65.3 °F 48.9 °F 55% 29.89 in 10.0 mi WSW 11.5 mph - N/A   Clear
9:15 PM 64.2 °F 49.3 °F 58% 29.89 in 10.0 mi WSW 11.5 mph - N/A   Clear
9:55 PM 63.0 °F 49.8 °F 62% 29.89 in 10.0 mi WSW 9.2 mph - N/A   Clear
10:15 PM 62.6 °F 49.8 °F 63% 29.89 in 10.0 mi WSW 10.4 mph - N/A   Clear
10:35 PM 62.4 °F 50.0 °F 64% 29.89 in 10.0 mi WSW 10.4 mph - N/A   Clear
10:55 PM 62.1 °F 50.0 °F 65% 29.89 in 10.0 mi WSW 10.4 mph - N/A   Clear
11:15 PM 61.7 °F 49.5 °F 64% 29.89 in 10.0 mi WSW 13.8 mph - N/A   Clear
11:35 PM 61.7 °F 48.9 °F 63% 29.89 in 10.0 mi WSW 15.0 mph - N/A   Clear
11:55 PM 61.7 °F 48.4 °F 62% 29.88 in 10.0 mi WSW 13.8 mph - N/A   Clear